Location: Unspecified
(0.0000°N, 0.0000°E)
Time: 15:53:31
(UTC+00:00)

AAUSAT CUBESAT 2 - Visible Passes

Search period start: 19 October 2020 00:00
Search period end: 29 October 2020 00:00
Orbit: 573 x 590 km, 97.5° (Epoch: 18 October)

Date Brightness Start Highest point End Pass type
(mag) Time Alt. Az. Time Alt. Az. Time Alt. Az.
24 Oct ? 18:00:39 10° SSW 18:04:16 31° WSW 18:07:54 10° NW visible
25 Oct ? 18:06:19 10° SSW 18:09:44 26° WSW 18:13:09 10° NW visible
26 Oct ? 04:35:41 10° ENE 04:37:20 12° ESE 04:38:58 10° SE visible
26 Oct ? 18:12:02 10° SSW 18:15:12 22° WSW 18:18:21 10° NW visible
27 Oct ? 04:40:28 10° ENE 04:42:47 15° ESE 04:45:06 10° SE visible
27 Oct ? 18:17:50 10° SW 18:20:39 18° WSW 18:23:28 10° WNW visible
28 Oct ? 04:45:27 10° ENE 04:48:14 18° ESE 04:51:02 10° SE visible
28 Oct ? 18:23:44 10° SW 18:26:07 15° WSW 18:28:28 10° WNW visible
